Elko, NV

7:58 AM PST on February 20, 2018 (GMT -0800)
Elko Regional

Weather History for KEKO - February, 2012

Change the Weather History Date:

Tuesday, February 28, 2012

  Actual Average Record
Temperature  
Mean Temperature 29 °F 34 °F  
Max Temperature 41 °F 46 °F 70 °F (1986)
Min Temperature 16 °F 22 °F -34 °F (1890)
Degree Days  
Heating Degree Days 36 31  
Month to date heating degree days 950 983  
Since 1 July heating degree days 4787 5168  
Cooling Degree Days 0 0  
Month to date cooling degree days 0 0  
Year to date cooling degree days 0 0  
Moisture  
Dew Point 15 °F    
Average Humidity 62    
Maximum Humidity 92    
Minimum Humidity 32    
Precipitation  
Precipitation 0.00 in 0.03 in 0.36 in (2006)
Month to date precipitation 0.38 0.84  
Year to date precipitation 1.34 1.96  
Snow  
Snow 0.00 in 0.20 in 2.90 in (2000)
Month to date snowfall 5.2 6.4  
Since 1 July snowfall 14.1 32.5  
Snow Depth 0.00 in    
Sea Level Pressure  
Sea Level Pressure 29.95 in    
Wind  
Wind Speed 8 mph (SW)    
Max Wind Speed 24 mph    
Max Gust Speed 30 mph    
Visibility 10 miles    
Events      
T = Trace of Precipitation, MM = Missing Value Source: NWS Daily Summary

Daily Weather History Graph

Daily Weather History Graph

Search for Another Location

Airport or City:

Trip Planner

Search our weather history database for the weather conditions in past years. The results will help you decide how hot, cold, wet, or windy it might be!

Date:

Astronomy

Feb. 28, 2012 Rise Set
Actual Time 6:19 AM PST 5:32 PM PST
Civil Twilight 5:51 AM PST 6:00 PM PST
Nautical Twilight 5:20 AM PST 6:32 PM PST
Astronomical Twilight 4:48 AM PST 7:03 PM PST
Moon 9:26 AM PST (2/28) No Moon Set
Length of Visible Light 12h 08m
Length of Day
11h 13m
Waxing Crescent, 39% of the Moon is Illuminated
Feb 28
Waxing Crescent
Feb 29
First Quarter
Mar 8
Full
Mar 14
Last Quarter
Mar 22
New

Hourly Weather History & Observations

Time (PST) Temp. Windchill Dew Point Humidity Pressure Visibility Wind Dir Wind Speed Gust Speed Precip Events Conditions
12:56 AM 19.9 °F 13.4 °F 18.0 °F 92% 29.81 in 10.0 mi SW 4.6 mph - N/A   Mostly Cloudy
1:56 AM 21.0 °F - 18.0 °F 88% 29.81 in 10.0 mi Calm Calm - N/A   Clear
2:56 AM 19.0 °F - 16.0 °F 88% 29.83 in 10.0 mi Calm Calm - N/A   Overcast
3:56 AM 17.1 °F - 14.0 °F 88% 29.87 in 10.0 mi Calm Calm - N/A   Clear
4:56 AM 17.1 °F - 14.0 °F 88% 29.89 in 10.0 mi Calm Calm - N/A   Scattered Clouds
5:56 AM 17.1 °F 8.7 °F 14.0 °F 88% 29.93 in 10.0 mi SW 5.8 mph - N/A   Overcast
6:56 AM 19.0 °F 13.9 °F 16.0 °F 88% 29.95 in 10.0 mi WSW 3.5 mph - N/A   Overcast
7:56 AM 26.1 °F 17.6 °F 19.0 °F 75% 29.97 in 10.0 mi SSW 8.1 mph - N/A   Mostly Cloudy
8:56 AM 30.0 °F 22.4 °F 18.0 °F 61% 29.98 in 10.0 mi South 8.1 mph - N/A   Clear
9:56 AM 34.0 °F 27.2 °F 16.0 °F 48% 29.99 in 10.0 mi WSW 8.1 mph - N/A   Scattered Clouds
10:56 AM 33.1 °F 22.6 °F 10.9 °F 40% 30.02 in 10.0 mi West 16.1 mph 24.2 mph N/A   Clear
11:56 AM 37.9 °F 27.9 °F 12.9 °F 36% 30.00 in 10.0 mi WSW 19.6 mph 26.5 mph N/A   Clear
12:56 PM 37.9 °F 30.9 °F 12.9 °F 36% 30.00 in 10.0 mi West 10.4 mph - N/A   Overcast
1:56 PM 41.0 °F 32.2 °F 14.0 °F 33% 29.99 in 10.0 mi West 18.4 mph 23.0 mph N/A   Scattered Clouds
2:56 PM 37.9 °F 30.0 °F 14.0 °F 38% 29.99 in 10.0 mi SW 12.7 mph 23.0 mph N/A   Mostly Cloudy
3:56 PM 39.0 °F 32.3 °F 14.0 °F 36% 29.99 in 10.0 mi SW 10.4 mph - N/A   Partly Cloudy
4:56 PM 36.0 °F 28.0 °F 12.0 °F 37% 29.99 in 10.0 mi SW 11.5 mph - N/A   Clear
5:56 PM 32.0 °F 25.6 °F 12.0 °F 44% 30.01 in 10.0 mi SW 6.9 mph - N/A   Clear
6:56 PM 30.0 °F - 12.0 °F 47% 30.02 in 10.0 mi Calm Calm - N/A   Clear
7:56 PM 30.9 °F 25.2 °F 14.0 °F 50% 29.99 in 10.0 mi SW 5.8 mph - N/A   Partly Cloudy
8:56 PM 33.1 °F 26.9 °F 19.0 °F 56% 29.98 in 10.0 mi SW 6.9 mph - N/A   Overcast
9:56 PM 35.1 °F 29.3 °F 18.0 °F 50% 29.94 in 10.0 mi SSE 6.9 mph - N/A   Overcast
10:56 PM 35.1 °F 25.9 °F 19.0 °F 52% 29.93 in 10.0 mi South 13.8 mph 23.0 mph N/A   Overcast
11:56 PM 33.1 °F 27.7 °F 19.0 °F 56% 29.89 in 10.0 mi WSW 5.8 mph - N/A   Overcast